Date String (YYYY-MM-DD hh:mm:ss) UTC,Instrument flags,absolute air pressure of the measurement (hPa),sample flow rate (lpm),inlet stack bypass flow (lpm),air temperature of the measurement (°C),ambient temperature measured by the external sensor (°C),aerosol sample conditioner tube jacket temperature (°C),OPC LED temperature (°C),internal box temperature (°C),relative humidity of the measurement (%),span deviation,mass concentration of particles derived from Lorenz-Mie calculation of OPC scattering (μg/m³),mass concentration of particles derived from Lorenz-Mie calculation of OPC scattering (μg/m³),mass concentration of particles derived from Lorenz-Mie calculation of OPC scattering (μg/m³)
DateTimeUTC,F1_M11,P_M11,Q1_M11,Q2_M11,T1_M11,T2_M11,T3_M11,T4_M11,T5_M11,U1_M11,ZSPAN_M11,X0_M11,X2_M11,X1_M11
2023-11-12 01:00:00,SystemResetWarning,0831.3,5.00,000.00,027.2,025.9,000.0,035.7,028.5,6.1,0000.0,0004.04,0002.56,0001.82
2023-11-12 01:01:00,SystemResetWarning,0831.3,5.00,000.00,027.2,025.9,000.0,035.7,028.5,6.1,0000.0,0005.00,0002.51,0001.80
2023-11-12 01:02:00,SystemResetWarning,0831.3,5.00,000.00,027.2,025.9,000.0,035.6,028.4,6.4,0000.0,0005.74,0002.54,0001.79
2023-11-12 01:03:00,SystemResetWarning,0831.3,5.00,000.00,027.1,025.8,000.0,035.6,028.3,6.5,0000.0,0006.87,0002.56,0001.79
2023-11-12 01:04:00,SystemResetWarning,0831.3,5.01,000.00,027.1,025.8,000.0,035.6,028.3,6.6,0000.0,0007.57,0002.58,0001.81
2023-11-12 01:05:00,SystemResetWarning,0831.3,5.00,000.00,027.1,025.8,000.0,035.6,028.3,6.5,0000.0,0007.54,0002.60,0001.82
2023-11-12 01:06:00,SystemResetWarning,0831.4,5.00,000.00,027.1,025.8,000.0,035.6,028.3,6.5,0000.0,0007.52,0002.58,0001.83
2023-11-12 01:07:00,SystemResetWarning,0831.4,5.00,000.00,027.1,025.7,000.0,035.6,028.4,6.6,0000.0,0007.57,0002.57,0001.84
2023-11-12 01:08:00,SystemResetWarning,0831.4,5.00,000.00,027.1,025.7,000.0,035.6,028.4,6.6,0000.0,0007.74,0002.61,0001.85
2023-11-12 01:09:00,SystemResetWarning,0831.4,5.00,000.00,027.1,025.7,000.0,035.5,028.4,6.6,0000.0,0007.74,0002.62,0001.85
2023-11-12 01:10:00,SystemResetWarning,0831.4,5.00,000.00,027.1,025.7,000.0,035.5,028.4,6.4,0000.0,0007.76,0002.59,0001.84
2023-11-12 01:11:00,SystemResetWarning,0831.4,5.00,000.00,027.0,025.7,000.0,035.5,028.4,6.2,0000.0,0007.88,0002.70,0001.88
2023-11-12 01:12:00,SystemResetWarning,0831.5,5.00,000.00,027.0,025.7,000.0,035.5,028.3,6.5,0000.0,0007.40,0002.74,0001.91
2023-11-12 01:13:00,SystemResetWarning,0831.4,5.00,000.00,027.0,025.7,000.0,035.5,028.3,6.6,0000.0,0006.69,0002.70,0001.92
2023-11-12 01:14:00,SystemResetWarning,0831.4,5.00,000.00,027.0,025.7,000.0,035.5,028.2,6.7,0000.0,0006.12,0002.71,0001.94
2023-11-12 01:15:00,SystemResetWarning,0831.4,5.00,000.00,027.0,025.6,000.0,035.5,028.2,6.7,0000.0,0005.55,0002.65,0001.93
2023-11-12 01:16:00,SystemResetWarning,0831.5,4.99,000.00,027.0,025.6,000.0,035.5,028.2,6.6,0000.0,0005.56,0002.65,0001.95
2023-11-12 01:17:00,SystemResetWarning,0831.4,5.00,000.00,027.0,025.6,000.0,035.5,028.3,6.6,0000.0,0005.63,0002.68,0001.96
2023-11-12 01:18:00,SystemResetWarning,0831.4,5.00,000.00,026.9,025.6,000.0,035.4,028.3,6.7,0000.0,0005.56,0002.68,0001.96
2023-11-12 01:19:00,SystemResetWarning,0831.5,5.00,000.00,026.9,025.6,000.0,035.4,028.2,6.7,0000.0,0005.35,0002.69,0001.98
2023-11-12 01:20:00,SystemResetWarning,0831.4,5.00,000.00,026.9,025.6,000.0,035.4,028.3,6.6,0000.0,0005.54,0002.74,0001.98
2023-11-12 01:21:00,SystemResetWarning,0831.5,5.00,000.00,026.9,025.6,000.0,035.4,028.3,6.4,0000.0,0005.64,0002.76,0001.99
2023-11-12 01:22:00,SystemResetWarning,0831.5,5.00,000.00,026.9,025.6,000.0,035.4,028.3,6.5,0000.0,0005.93,0002.72,0001.97
2023-11-12 01:23:00,SystemResetWarning,0831.5,5.00,000.00,026.9,025.6,000.0,035.4,028.2,6.7,0000.0,0005.87,0002.67,0001.96
2023-11-12 01:24:00,SystemResetWarning,0831.5,5.00,000.00,026.9,025.6,000.0,035.4,028.2,6.8,0000.0,0005.90,0002.69,0001.97
2023-11-12 01:25:00,SystemResetWarning,0831.4,5.00,000.00,026.9,025.5,000.0,035.4,028.2,6.8,0000.0,0005.75,0002.66,0001.95
2023-11-12 01:26:00,SystemResetWarning,0831.5,5.01,000.00,026.9,025.5,000.0,035.3,028.2,6.8,0000.0,0004.91,0002.66,0001.94
2023-11-12 01:27:00,SystemResetWarning,0831.5,5.00,000.00,026.9,025.5,000.0,035.3,028.2,6.7,0000.0,0005.03,0002.70,0001.94
2023-11-12 01:28:00,SystemResetWarning,0831.5,5.00,000.00,026.9,025.5,000.0,035.3,028.2,6.3,0000.0,0004.98,0002.68,0001.93
2023-11-12 01:29:00,SystemResetWarning,0831.5,4.99,000.00,026.9,025.5,000.0,035.3,028.2,6.4,0000.0,0005.05,0002.71,0001.93
2023-11-12 01:30:00,SystemResetWarning,0831.4,5.00,000.00,026.9,025.5,000.0,035.3,028.2,6.5,0000.0,0004.99,0002.69,0001.93
2023-11-12 01:31:00,SystemResetWarning,0831.4,5.00,000.00,026.8,025.5,000.0,035.3,028.2,6.6,0000.0,0004.77,0002.63,0001.92
2023-11-12 01:32:00,SystemResetWarning,0831.5,5.00,000.00,026.8,025.5,000.0,035.3,028.2,6.7,0000.0,0004.69,0002.63,0001.92
2023-11-12 01:33:00,SystemResetWarning,0831.5,5.00,000.00,026.8,025.5,000.0,035.3,028.2,6.7,0000.0,0004.44,0002.67,0001.92
2023-11-12 01:34:00,SystemResetWarning,0831.5,5.01,000.00,026.8,025.5,000.0,035.3,028.2,6.7,0000.0,0004.28,0002.62,0001.90
2023-11-12 01:35:00,SystemResetWarning,0831.5,5.00,000.00,026.8,025.5,000.0,035.3,028.2,6.8,0000.0,0004.23,0002.59,0001.87
2023-11-12 01:36:00,SystemResetWarning,0831.5,5.00,000.00,026.8,025.5,000.0,035.3,028.1,6.8,0000.0,0004.23,0002.57,0001.85
2023-11-12 01:37:00,SystemResetWarning,0831.5,5.00,000.00,026.8,025.5,000.0,035.3,028.1,6.9,0000.0,0004.11,0002.54,0001.84
2023-11-12 01:38:00,SystemResetWarning,0831.5,4.99,000.00,026.8,025.5,000.0,035.2,028.1,6.9,0000.0,0003.94,0002.52,0001.85
2023-11-12 01:39:00,SystemResetWarning,0831.5,5.00,000.00,026.8,025.5,000.0,035.2,028.1,6.9,0000.0,0004.33,0002.56,0001.87
2023-11-12 01:40:00,SystemResetWarning,0831.5,5.00,000.00,026.8,025.5,000.0,035.2,028.0,6.9,0000.0,0004.80,0002.59,0001.88
2023-11-12 01:41:00,SystemResetWarning,0831.5,5.00,000.00,026.7,025.5,000.0,035.2,028.0,6.9,0000.0,0005.02,0002.59,0001.89
2023-11-12 01:42:00,SystemResetWarning,0831.6,5.00,000.00,026.7,025.5,000.0,035.2,028.0,6.8,0000.0,0005.14,0002.64,0001.91
2023-11-12 01:43:00,SystemResetWarning,0831.6,5.00,000.00,026.7,025.4,000.0,035.2,028.0,6.7,0000.0,0005.19,0002.65,0001.93
2023-11-12 01:44:00,SystemResetWarning,0831.6,5.00,000.00,026.7,025.4,000.0,035.2,028.1,6.6,0000.0,0005.12,0002.61,0001.93
2023-11-12 01:45:00,SystemResetWarning,0831.6,5.00,000.00,026.7,025.4,000.0,035.2,028.1,6.6,0000.0,0005.22,0002.65,0001.95
2023-11-12 01:46:00,SystemResetWarning,0831.6,5.00,000.00,026.7,025.4,000.0,035.2,028.1,6.6,0000.0,0005.25,0002.68,0001.99
2023-11-12 01:47:00,SystemResetWarning,0831.6,5.00,000.00,026.7,025.5,000.0,035.2,028.1,6.7,0000.0,0005.19,0002.68,0002.01
2023-11-12 01:48:00,SystemResetWarning,0831.7,5.00,000.00,026.7,025.5,000.0,035.2,028.1,6.6,0000.0,0005.15,0002.68,0002.03
2023-11-12 01:49:00,SystemResetWarning,0831.7,5.01,000.00,026.7,025.5,000.0,035.1,028.1,6.5,0000.0,0005.52,0002.72,0002.03
2023-11-12 01:50:00,SystemResetWarning,0831.7,5.00,000.00,026.7,025.5,000.0,035.1,028.1,6.6,0000.0,0006.36,0002.69,0002.02
2023-11-12 01:51:00,SystemResetWarning,0831.7,5.00,000.00,026.7,025.5,000.0,035.1,028.1,6.7,0000.0,0006.25,0002.65,0002.00
2023-11-12 01:52:00,SystemResetWarning,0831.7,5.00,000.00,026.7,025.5,000.0,035.1,028.1,6.6,0000.0,0006.46,0002.65,0002.00
2023-11-12 01:53:00,SystemResetWarning,0831.7,5.00,000.00,026.7,025.4,000.0,035.1,028.1,6.6,0000.0,0007.32,0002.63,0001.98
2023-11-12 01:54:00,SystemResetWarning,0831.7,5.00,000.00,026.7,025.4,000.0,035.1,028.0,6.7,0000.0,0007.17,0002.59,0001.96
2023-11-12 01:55:00,SystemResetWarning,0831.6,5.00,000.00,026.7,025.5,000.0,035.1,028.0,6.6,0000.0,0007.29,0002.60,0001.95
2023-11-12 01:56:00,SystemResetWarning,0831.6,5.00,000.00,026.7,025.5,000.0,035.1,028.1,6.6,0000.0,0007.71,0002.58,0001.96
2023-11-12 01:57:00,SystemResetWarning,0831.6,5.00,000.00,026.7,025.5,000.0,035.1,028.1,6.6,0000.0,0007.95,0002.58,0001.96
2023-11-12 01:58:00,SystemResetWarning,0831.6,5.00,000.00,026.7,025.5,000.0,035.1,028.1,6.5,0000.0,0007.96,0002.57,0001.94
2023-11-12 01:59:00,SystemResetWarning,0831.6,5.00,000.00,026.7,025.5,000.0,035.1,028.1,6.5,0000.0,0007.98,0002.57,0001.93
